www.pogodaiklimat.ru

Погода и климат >> Архив погоды >> Канада >> Arviat


ПОГОДА в Arviat

  • Прогноз погоды в Arviat
  • Монитор погоды в Arviat
  • Климат города

АРХИВ ПОГОДЫ в Arviat

Время (UTC), дата Ветер
(напр.,м/с)
 
Видим.   Явления Облачность Т
(С)
Тd
(С)
f
(%)
Тe
(С)
Тes
(С)
Комфортность P
(гПа)
Po
(гПа)
Тmin
(С)
Tmax
(С)
R
(мм)
R24
(мм)
S
(см)
03 14.06 ЮЗ 5 16 км 10/0
[]
+14.9 +5.8 54 +14 +14 1009.9 983.1
06 14.06 Ю 5 16 км слаб. дождь 10/10 1500 м
[]
+11.5 +7.7 77 +9 +9 1012.4 985.5 +11.3 +19.1 0.5 1
09 14.06 Ю 4 16 км слаб. дождь {осадки} 10/10 1500 м
[]
+10.6 +8.4 86 +8 +8 1013.0 986.1
12 14.06 С 1 16 км {осадки} 9/0
[]
+9.4 +8.5 94 +9 +10 1014.1 987.1 +9.4 +19.1 2
15 14.06 Ю 2 16 км {осадки} 9/0 2000 м
[]
+12.0 +9.3 84 +11 +16 1015.1 988.1
18 14.06 Ю 8 16 км 10/10 1500 м
[]
+15.7 +7.7 59 +14 +14 1015.0 988.0 +9.2 +15.7 0.3
21 14.06 Ю 6 16 км 10/10 1500 м
[]
+17.6 +7.0 50 +17 +17 1014.7 987.8
00 15.06 Ю 7 16 км 9/0
[]
+19.0 +7.0 46 +19 +19 1012.9 986.0 +9.2 +19.5
03 15.06 Ю 8 16 км 5/0
[]
+16.7 +6.7 52 +15 +15 1013.1 986.2
06 15.06 Ю 7 16 км 3/0
[]
+15.1 +6.8 58 +13 +13 1013.9 987.0 +9.2 +19.5 21
09 15.06 Ю 2 16 км 3/0
[]
+13.6 +6.5 62 +13 +13 1014.8 987.9
12 15.06 С 1 16 км 3/0 2000 м
[]
+9.7 +7.3 85 +9 +11 1015.5 988.5 +9.7 +19.5
15 15.06 Ю 1 16 км 10/10 1500 м
[]
+11.7 +7.7 76 +12 +12 1015.8 988.8
18 15.06 С 2 16 км слаб. дождь 10/10 1500 м
[]
+17.5 +8.9 57 +18 +18 1014.4 987.6 +9.2 +17.5
21 15.06 С 4 16 км ясно +25.7 +7.2 31 +26 +33 жарко 1010.6 984.0
00 16.06 Ю 3 16 км 9/0
[]
+23.7 +4.9 30 +24 +25 комфорт 1008.6 981.9 +9.2 +26.5
03 16.06 С 3 16 км зарница 10/10 1500 м
[]
+17.6 +8.5 55 +18 +18 1011.5 984.7
06 16.06 СВ 3 16 км {осадки} 10/10 1500 м
[]
+11.8 +8.7 81 +10 +10 1016.7 989.7 +9.2 +26.5 5 41
09 16.06 СВ 2 16 км {осадки} 10/0
[]
+11.4 +7.9 79 +10 +10 1016.9 990.1
12 16.06 С 2 16 км 10/0 2000 м
[]
+11.5 +8.3 81 +10 +11 1017.8 990.9 +10.9 +26.5
15 16.06 С 1 16 км 10/0
[]
+13.1 +8.6 74 +13 +19 1019.0 992.0
18 16.06 С 5 16 км ясно +21.9 +9.1 44 +23 +30 комфорт 1017.4 990.5 +10.9 +21.9
21 16.06 С 5 16 км 5/0
[]
+28.4 +7.2 26 +28 +32 жарко 1015.0 988.3
00 17.06 С 6 16 км 9/0
[]
+30.1 +5.8 22 +29 +29 жарко 1013.4 986.8 +10.9 +30.3
03 17.06 С 3 16 км ясно +25.6 +5.0 27 +25 +25 комфорт 1013.4 986.7
06 17.06 Ю 1 16 км ясно +18.1 +7.9 51 +19 +19 1015.0 988.3 +10.9 +30.3 22
09 17.06 Ю 2 16 км ясно +13.7 +8.4 70 +14 +14 1016.4 989.7
12 17.06 Ю 1 16 км ясно +10.7 +8.8 88 +11 +14 1017.5 990.8 +10.6 +30.3
15 17.06 Ю 1 16 км 9/0
[]
+13.7 +7.8 68 +14 +20 1017.9 991.1
18 17.06 С 3 16 км ясно +25.9 +5.8 28 +25 +37 комфорт 1014.9 988.3 +10.1 +25.9
21 17.06 СЗ 2 16 км ясно +32.3 +0.9 13 +29 +40 жарко 1011.7 985.3
00 18.06 С 1 16 км ясно +32.3 +2.5 15 +29 +33 жарко 1010.2 983.7 +10.1 +33.8
03 18.06 СЗ 1 16 км ясно +28.1 +4.8 23 +27 +27 жарко 1009.8 983.3
06 18.06 ЮВ 1 16 км 9/0
[]
+21.1 +8.0 43 +22 +22 комфорт 1011.6 985.2 +10.1 +33.8
09 18.06 ЮВ 1 16 км ясно +16.9 +8.7 58 +18 +18 1013.6 987.2
12 18.06 ЮВ 1 16 км ясно +13.5 +8.4 71 +14 +16 1015.4 988.9 +12.7 +33.8
15 18.06 С 2 16 км ясно +17.1 +9.3 60 +17 +26 1016.4 989.8
18 18.06 С 3 16 км ясно +29.0 +6.4 24 +28 +39 жарко 1013.8 987.4 +11.8 +29.0
21 18.06 С 3 16 км ясно +35.8 +3.6 13 +33 +42 жарко 1010.7 984.4
00 19.06 С 3 16 км 5/0
[]
+36.8 +4.4 13 +34 +36 очень
жарко
1009.3 983.0 +11.8 +37.8
03 19.06 С 2 16 км 10/0
[]
+31.8 +5.7 19 +30 +30 жарко 1009.6 983.3
06 19.06 Ю 4 16 км 9/0
[]
+25.2 +7.9 33 +25 +25 комфорт 1011.8 985.5 +11.8 +37.8 1
09 19.06 Ю 2 16 км ясно +22.4 +9.0 42 +24 +24 комфорт 1013.7 987.5
12 19.06 З 1 16 км 10/0
[]
+18.7 +9.7 56 +21 +22 комфорт 1015.5 989.2 +18.2 +37.8
15 19.06 Ю 2 16 км ясно +20.3 +9.5 50 +22 +31 комфорт 1016.5 990.1
18 19.06 Ю 4 16 км ясно +28.2 +8.2 28 +28 +38 жарко 1014.6 988.2 +17.4 +28.2
21 19.06 Ю 3 16 км ясно +35.0 +7.1 18 +33 +41 жарко 1011.4 985.2
00 20.06 ЮЗ 1 16 км ясно +37.7 +5.1 13 +35 +38 очень
жарко
1009.3 983.1 +17.4 +39.5
03 20.06 ЮЗ 2 16 км ясно +32.6 +7.8 21 +31 +31 жарко 1009.5 983.3
06 20.06 Ю 8 16 км 9/0
[]
+27.9 +10.9 35 +29 +29 жарко 1012.1 985.9 +17.4 +39.5
09 20.06 Ю 9 16 км ясно +25.3 +10.9 40 +26 +26 жарко 1013.0 986.8
12 20.06 Ю 5 16 км 10/0
[]
+22.3 +11.2 49 +24 +25 комфорт 1014.1 987.9 +22.3 +39.5
15 20.06 Ю 2 16 км ясно +21.5 +11.6 53 +24 +33 комфорт 1015.0 988.7
18 20.06 Ю 4 16 км ясно +28.8 +9.3 30 +29 +38 жарко 1012.1 985.9 +19.7 +28.8
21 20.06 Ю 7 16 км зарница 3/0
[]
+33.5 +8.6 22 +32 +35 жарко 1008.5 982.4

 

Местоположение метеостанции Arviat (Канада): широта 61.10 долгота -94.06 высота над уровнем моря 10 м.

В архиве по умолчанию представлена погода в Arviat за последнюю неделю. Архивные данные за месяц целиком и за предыдущие месяцы, начиная с января 2011 года, Вы можете получить, выбрав интересующий диапазон дат из раскрывающегося списка и нажав кнопку "Ввод!".


*Определитесь, кто Вы:
робот инопланетянин человек

Внимание! Время в таблицах - всемирное. Для получения местного времени необходимо прибавить поправку, которая в Arviat равна -6 ч.

Смотрите также архив погоды в соседних городах и на ближайших метеорологических станциях:

Погода в Arviat Airport (Канада) (1 км)
Погода в Rankin Inlet (Канада) (217 км)
Погода в Churchill Climate (Канада) (265 км)
Погода в Tadoule Lake (Канада) (362 км)
Погода в Baker Lake Airport (Канада) (370 км)
Погода в Baker Lake Climate (Канада) (372 км)
Погода в Dubawnt Lake (Канада) (462 км)
Погода в Gillam (Канада) (530 км)
Погода в Back River MAPS (Канада) (567 км)
Погода в Wager Bay (Канада) (579 км)

Пояснения к столбцам:

Ветер - указаны скорость ветра в м/с - средняя за 10 мин, порывы в срок и между сроками (в фигурных скобках) и направление, откуда дует ветер: С - северный, СВ - северо-восточный, В - восточный, ЮВ - юго-восточный, Ю - южный, ЮЗ - юго-западный, З - западный, СЗ - северо-западный.
Видимость - горизонтальная дальность видимости в метрах или километрах. При видимости от 1 до 10 км при отсутствии осадков обычно наблюдается дымка, при ухудшении видимости до 1 км и менее - туман. В сухую погоду видимость может ухудшаться дымом, пылью или мглою.
Явления - указаны атмосферные явления, наблюдавшиеся в срок или в последний час перед сроком; фигурными скобками обозначены явления, наблюдавшиеся между сроками (за 1-3 часа до срока); квадратными скобками обозначены град или гололедные отложения с указанием их диаметра в мм.
Облачность - указаны через наклонную черту общая и нижняя облачность в баллах и высота нижней границы облаков в метрах; квадратными скобками обозначены формы облаков: Ci - перистые, Cs - перисто-слоистые, Cc - перисто-кучевые, Ac - высококучевые, As - высокослоистые, Sc - слоисто-кучевые, Ns - слоисто-дождевые, Cu - кучевые, Cb - кучево-дождевые. Подробнее классификацию облаков см. в Атласе облаков (PDF).
T - Температура воздуха - температура, измеренная на высоте 2 м над землей.
Td - Температура точки росы - температура, при понижении до которой содержащийся в воздухе водяной пар достигнет насыщения.
f - Относительная влажность воздуха - влажноcть воздуха, измеренная на высоте 2 м над землей.
Te - Эффективная температура - температура, которую ощущает одетый по сезону человек в тени. Характеристика душности погоды. При расчете учитывается влияние влажности воздуха и скорости ветра на теплоощущения человека.
Tes - Эффективная температура на солнце - температура, которую ощущает человек, с поправкой на солнечный нагрев. Характеристика знойности погоды. Зависит от высоты солнца над горизонтом, облачности и скорости ветра. Ночью, в пасмурную погоду, а также при ветре 12 м/с и более поправка равна нулю.
P - Атмосферное давление - приведенное к уровню моря атмосферное давление.
Po - Атмосферное давление - измеренное на уровне метеостанции атмосферное давление.
Tmin - Минимальная температура - минимум температуры воздуха на высоте 2 м над землей.
Tmax - Максимальная температура - максимум температуры воздуха на высоте 2 м над землей.
R - Количество осадков - Количество выпавших осадков за период времени, мм. При наведении курсора мыши на число - период времени, за который выпало указанное количество осадков.
R24 - Количество осадков - Количество выпавших осадков за 24 часа, мм.
S - Снежный покров - Высота снежного покрова, см. При наведении курсора мыши на число - состояние снежного покрова и степень покрытия местности в баллах.